Погода в Бобо-Диуласо

Буркина-Фасо     11°10′43″N   4°17′49″W
темп.,
°C
ветер,
м/с
пор.,
м/с
влажн.,
%
обл.,
%
осадки,
мм/ч
давл.,
гПа
погр.,
м
27 ноября, сб
сб2700:00+26в222297 0.0 101112
03:00+24юв112685 0.0 101011
06:00+22св112937 0.0 101211
09:00+30вюв34205 0.0 1013401
12:00+35вюв46145 0.0 10112412
15:00+36в45125 0.0 10083013
18:00+30ююв11176 0.0 100911
21:00+27ююз111959 0.0 101111
28 ноября, вс
вс2800:00+25всв222150 0.0 101112
03:00+24юв222015 0.0 101018
06:00+23всв222285 0.0 101116
09:00+30вюв461523 0.0 1012406
12:00+36вюв45108 0.0 10102509
15:00+37в3495 0.0 10073240
18:00+30юв11134 0.0 100811
21:00+27ююз11160 0.0 101011
29 ноября, пн
пн2900:00+25вюв11180 0.0 101011
03:00+23св11200 0.0 101011
06:00+22всв22200 0.0 101111
09:00+29вюв35131 0.0 1012453
12:00+35вюв4690 0.0 10101848
15:00+36вюв4582 0.0 10073261
18:00+29ююв221226 0.0 100811
21:00+26св00144 0.0 101111
30 ноября, вт
вт3000:00+25ссз11162 0.0 101011
03:00+22с11175 0.0 100911
06:00+22св221993 0.0 101013
09:00+29юв34148 0.0 1012444
12:00+34вюв46100 0.0 10101591
15:00+36в3490 0.0 10072957
18:00+29всв11133 0.0 100811
21:00+27ю11140 0.0 101011
1 декабря, ср
ср100:00+24с22170 0.0 101011
03:00+23ссв11190 0.0 100911
06:00+22всв22200 0.0 101111
09:00+29в35140 0.0 1012376
12:00+35в4690 0.0 10101785
15:00+36в34104 0.0 10072931
18:00+30св22141 0.0 100811
21:00+27ссз11140 0.0 101011